Weather in Schwerin

Germany     53°38′11″N   11°24′07″E
temp.,
°C
wind,
m/s
gust,
m/s
humid.,
%
clouds,
%
prec.,
mm/h
press.,
hPa
HPBL,
m
28 july, wed
wed2823:00+17e118587 0.4 101111
02:00+16w2395100 1.9 101080
05:00+17ssw3895100 1.6 1009246
08:00+18sw5986100 1.9 1009527
11:00+21sw676265 0.0 10091236
14:00+22sw585897 0.0 10091735
17:00+20wsw587495 0.3 1009746
20:00+19sw510825 0.8 1008614
29 july, thu
thu2923:00+15ssw38927 0.5 1009150
02:00+14ssw512922 0.5 1009341
05:00+14ssw5139176 0.0 1008422
08:00+16sw713810 0.0 10081077
11:00+19wsw913560 0.1 10081778
14:00+21wsw10144591 0.1 10082461
17:00+19wsw912575 0.1 10091767
20:00+17wsw6116523 0.1 1009927
30 july, fri
fri3023:00+13sw497898 0.0 1009202
02:00+11ssw4118876 0.0 1009236
05:00+11sw5138810 0.0 1008321
08:00+15sw713734 0.0 1008580
11:00+19wsw81154100 0.0 10071399
14:00+22wsw7947100 0.0 10071558
17:00+22wsw685166 0.0 10061378
20:00+21sse116558 0.1 100413
31 july, sat
sat3123:00+17sw358397 0.4 1004122
02:00+15sw412963 1.3 1003478
05:00+13sw61491100 0.0 1003887
08:00+15sw101781100 0.1 10011276
11:00+15wsw9148588 0.3 10031009
14:00+19wsw9137292 1.1 10041416
17:00+19wsw81380100 1.8 10041377
20:00+16wsw6119078 2.9 1006781
1 august, sun
sun123:00+14wsw4109585 0.2 1007347
02:00+13sw499727 0.2 1007237
05:00+13sw4896100 0.0 1007275
08:00+14sw4893100 0.1 1007325
11:00+18wsw6773100 0.3 1007803
14:00+20wsw566497 1.4 10071455
17:00+16w4788100 2.6 1007361
20:00+15sw259062 3.4 1007209